Milwaukee, WI

3:07 PM CDT on March 24, 2017 (GMT -0500)
Gen Mitchell International

Weather History for KMKE - August, 2014

Change the Weather History Date:

Friday, August 15, 2014

  Actual Average Record
Temperature  
Mean Temperature 68 °F 71 °F  
Max Temperature 79 °F 79 °F 93 °F (1955)
Min Temperature 56 °F 63 °F 46 °F (1962)
Degree Days  
Heating Degree Days 0 0  
Month to date heating degree days 4 0  
Since 1 June heating degree days 99 95  
Since 1 July heating degree days 25 11  
Cooling Degree Days 3 6  
Month to date cooling degree days 53 104  
Year to date cooling degree days 288 476  
Since 1 June cooling degree days 270 446  
Growing Degree Days 17 (Base 50)    
Moisture  
Dew Point 51 °F    
Average Humidity 59    
Maximum Humidity 78    
Minimum Humidity 40    
Precipitation  
Precipitation 0.00 in 0.14 in 2.67 in (1938)
Month to date precipitation 2.10 1.99  
Year to date precipitation 21.70 22.20  
Snow  
Snow 0.00 in 0.00 in 0.00 in ()
Month to date snowfall 0.0 0.0  
Since 1 June snowfall 0.0 0.0  
Since 1 July snowfall 0.0 0.0  
Snow Depth 0.00 in    
Sea Level Pressure  
Sea Level Pressure 30.02 in    
Wind  
Wind Speed 8 mph (WSW)    
Max Wind Speed 15 mph    
Max Gust Speed 19 mph    
Visibility 10 miles    
Events      
T = Trace of Precipitation, MM = Missing Value Source: NWS Daily Summary

Daily Weather History Graph

Daily Weather History Graph

Search for Another Location

Airport or City:

Trip Planner

Search our weather history database for the weather conditions in past years. The results will help you decide how hot, cold, wet, or windy it might be!

Date:

Astronomy

Aug. 15, 2014 Rise Set
Actual Time 5:57 AM CDT 7:53 PM CDT
Civil Twilight 5:26 AM CDT 8:24 PM CDT
Nautical Twilight 4:49 AM CDT 9:01 PM CDT
Astronomical Twilight 4:08 AM CDT 9:42 PM CDT
Moon 10:45 PM CDT (8/15) 11:49 AM CDT (8/15)
Length of Visible Light 14h 57m
Length of Day
13h 56m
Waning Gibbous, 69% of the Moon is Illuminated
Aug 15
Waning Gibbous
Aug 17
Last Quarter
Aug 25
New
Sep 2
First Quarter
Sep 8
Full

Hourly Weather History & Observations

Time (CDT) Temp. Dew Point Humidity Pressure Visibility Wind Dir Wind Speed Gust Speed Precip Events Conditions
12:52 AM 57.0 °F 46.9 °F 69% 30.05 in 10.0 mi SW 8.1 mph - N/A   Clear
1:52 AM 57.0 °F 46.0 °F 67% 30.05 in 10.0 mi Calm Calm - N/A   Clear
2:52 AM 55.9 °F 46.9 °F 72% 30.06 in 10.0 mi Calm Calm - N/A   Scattered Clouds
3:52 AM 57.0 °F 46.9 °F 69% 30.06 in 10.0 mi WSW 6.9 mph - N/A   Scattered Clouds
4:52 AM 57.0 °F 45.0 °F 64% 30.06 in 10.0 mi WSW 4.6 mph - N/A   Mostly Cloudy
5:52 AM 57.0 °F 46.0 °F 67% 30.06 in 10.0 mi Variable 4.6 mph - N/A   Scattered Clouds
6:52 AM 57.9 °F 46.0 °F 65% 30.08 in 10.0 mi West 8.1 mph - N/A   Partly Cloudy
7:52 AM 61.0 °F 46.0 °F 58% 30.09 in 10.0 mi West 9.2 mph - N/A   Partly Cloudy
8:52 AM 64.4 °F 46.4 °F 52% 30.08 in 10.0 mi West 8.1 mph - N/A   Partly Cloudy
9:52 AM 68.0 °F 48.9 °F 50% 30.07 in 10.0 mi West 10.4 mph - N/A   Partly Cloudy
10:52 AM 71.1 °F 51.1 °F 49% 30.06 in 10.0 mi SW 10.4 mph - N/A   Partly Cloudy
11:52 AM 73.0 °F 50.0 °F 44% 30.06 in 10.0 mi WSW 6.9 mph - N/A   Partly Cloudy
12:52 PM 73.9 °F 52.0 °F 46% 30.03 in 10.0 mi SW 10.4 mph - N/A   Partly Cloudy
1:52 PM 75.0 °F 53.1 °F 46% 30.02 in 10.0 mi SSW 9.2 mph - N/A   Partly Cloudy
2:52 PM 77.0 °F 52.0 °F 42% 30.00 in 10.0 mi WSW 15.0 mph - N/A   Partly Cloudy
3:52 PM 78.1 °F 53.1 °F 42% 29.98 in 10.0 mi WSW 11.5 mph - N/A   Scattered Clouds
4:52 PM 79.0 °F 54.0 °F 42% 29.96 in 10.0 mi West 8.1 mph - N/A   Scattered Clouds
5:52 PM 77.0 °F 55.0 °F 47% 29.94 in 10.0 mi WSW 9.2 mph - N/A   Mostly Cloudy
6:52 PM 75.9 °F 55.9 °F 50% 29.94 in 10.0 mi SW 9.2 mph - N/A   Mostly Cloudy
7:52 PM 73.9 °F 57.0 °F 55% 29.93 in 10.0 mi SW 8.1 mph - N/A   Mostly Cloudy
8:52 PM 70.0 °F 59.0 °F 68% 29.94 in 10.0 mi SSW 8.1 mph - N/A   Partly Cloudy
9:52 PM 69.1 °F 59.0 °F 70% 29.95 in 10.0 mi SW 9.2 mph - N/A   Partly Cloudy
10:52 PM 68.0 °F 59.0 °F 73% 29.94 in 10.0 mi SW 8.1 mph - N/A   Partly Cloudy